Starlink 5142

operational
NORAD ID: 53984 Int'l Des: 2022-125 Owner: SPXS Country: US Constellation: starlink
LEOCIRCULAR

Über Starlink 5142

Beschreibung wird geladen...

Live-Position

3D-Globus wird geladen...

Nächste Überflüge

Höhenverlauf

Altitude vs Time

uPlot chart will show altitude changes over time

Zweizeiliger Elementsatz

1 53984U 22125W 25303.81470162 .00000760 00000-0 65835-4 0 9997
2 53984 53.2144 77.3052 0000475 108.1680 251.9363 15.08835658169851
Epoch: 30. Okt. 2025 • Age: 8 hours

Aktueller Status

Höhe 557.6 km
Geschwindigkeit 7.58 km/s
Subsatellitenpunkt -50.58°S, 76.18°W
Startdatum 5. Okt. 2022
Alter 3 years
Typ internet

Technische Details

Klassifizierung Payload
Masse 305.00 kg
Trockenmasse 290.00 kg
Gesamtmasse 305.00 kg
Länge 0.20 m
Durchmesser 2.80 m
Spannweite 9.00 m
Form Box + pan
Hersteller SPXS
Bus-Typ Starlink
Phasenstatus In Orbit
Besitzer/Staat SPXS/US

Große Konstellationen

Loading constellations...